Wind_Speed
38 37 35 34 33 34 31 29 28 25 25 24 21 20 18 17 16 14 14 13 13 13 13 13 13 13 13 13 12 12 11 10 10 10 10 9 9 8 7 7 6 5 4
37 38 37 36 35 35 33 31 29 27 25 24 22 22 20 19 18 17 16 14 14 14 14 14 14 14 14 14 13 12 12 12 11 11 10 9 9 8 8 7 6 4 3
34 36 36 37 36 36 35 32 31 30 28 25 25 24 23 22 21 19 18 17 16 15 16 15 15 15 16 15 14 14 13 13 12 11 11 10 9 8 8 7 5 5 4
32 33 34 35 36 36 37 35 33 31 29 28 27 26 25 24 23 21 20 19 18 17 17 17 17 17 16 16 15 15 14 14 13 12 11 11 10 9 8 7 6 5 5
29 31 32 33 35 36 36 36 35 34 32 31 30 28 26 26 26 24 22 22 21 19 19 19 19 18 18 17 17 16 16 15 14 13 12 11 11 10 9 8 7 6 6
27 29 30 32 32 33 34 35 36 35 35 33 31 30 28 27 27 26 25 24 23 22 22 21 21 21 20 19 18 18 17 16 15 14 13 12 11 10 10 9 8 8 8
24 26 28 29 30 31 32 33 35 36 35 34 33 33 31 29 27 28 28 27 26 25 24 24 24 23 22 21 20 19 19 18 17 16 14 13 12 11 11 10 9 9 9
20 22 24 26 28 29 31 32 33 35 36 35 35 35 34 31 30 30 29 29 29 29 27 26 26 25 24 24 23 22 21 20 19 18 17 15 14 13 12 11 11 11 11
17 19 21 23 25 27 29 31 32 34 35 36 37 36 35 34 33 33 32 32 31 31 31 30 30 28 27 26 25 24 24 22 21 20 19 18 16 15 14 13 13 13 12
14 16 19 21 22 24 27 29 31 32 33 35 37 38 37 36 36 35 35 34 33 33 33 32 32 32 31 29 28 27 27 25 24 23 22 21 19 18 17 16 15 15 15
12 13 15 18 20 22 24 27 30 31 33 34 36 37 38 38 38 38 37 36 36 35 35 35 34 33 33 33 31 30 29 28 27 26 25 24 22 21 19 19 18 17 17
13 13 13 15 17 20 22 24 27 30 32 34 36 36 37 38 39 39 39 40 38 37 37 37 36 35 34 34 33 33 32 31 30 29 27 26 25 23 22 21 21 20 20
13 13 14 14 15 18 20 22 25 28 30 32 34 36 37 38 38 40 41 41 41 40 38 38 38 37 36 36 35 35 35 34 33 32 30 29 28 26 25 24 24 23 22
15 14 14 14 15 17 19 22 24 26 28 31 33 35 36 38 38 40 41 41 41 41 41 39 38 38 38 37 36 37 37 36 35 35 33 32 31 29 28 27 26 25 24
16 15 14 15 15 16 18 20 22 25 27 29 32 34 35 37 39 40 41 42 41 41 41 41 42 40 40 40 38 38 39 39 39 38 36 35 34 32 31 29 28 27 26
18 16 16 16 15 16 17 18 20 23 25 27 30 32 34 36 38 39 41 42 42 42 42 41 42 43 41 40 40 41 40 39 39 39 38 37 36 34 33 32 31 30 29
20 18 18 17 17 16 16 17 19 21 23 26 28 30 32 34 36 37 39 41 42 43 42 41 42 42 43 41 41 42 43 42 40 40 39 39 38 37 35 34 33 32 31
23 21 20 19 18 17 17 16 17 19 20 23 25 27 29 32 34 36 38 40 41 42 43 42 43 43 43 43 42 43 43 43 42 42 41 39 39 38 37 36 35 34 33
24 24 23 21 20 19 18 17 16 17 18 20 22 24 26 29 31 34 36 38 39 41 42 43 43 44 43 44 43 43 43 42 42 42 42 41 40 38 38 37 37 36 35
25 25 24 23 22 21 19 18 16 16 17 18 19 21 23 26 29 31 33 35 37 39 41 42 43 44 44 44 44 44 44 44 43 42 42 42 41 40 39 38 37 37 35
25 25 25 25 24 23 21 19 17 16 16 16 17 19 21 24 26 29 31 33 35 37 39 40 41 42 43 45 45 45 46 46 46 43 42 42 42 41 41 40 38 37 36
26 26 26 26 25 24 22 20 18 16 15 14 15 16 18 21 24 26 28 31 33 35 36 37 39 40 41 43 44 45 45 46 45 43 42 42 42 42 41 40 39 38 36
26 26 26 26 26 25 24 21 19 17 15 13 12 14 16 18 21 23 26 29 31 33 34 35 37 38 39 41 42 43 44 44 43 43 43 43 43 43 42 41 39 38 37
26 26 26 27 27 26 25 23 21 18 16 14 12 13 14 15 18 20 23 25 27 29 31 33 35 36 37 38 39 40 40 41 42 42 42 42 41 41 40 41 40 39 38
26 26 26 26 26 26 25 24 22 20 17 16 14 13 12 13 14 16 19 22 25 27 30 31 33 34 35 36 37 39 38 38 38 39 40 40 40 40 40 39 38 37 37
26 26 26 26 26 26 25 24 23 21 19 17 15 13 12 11 12 13 15 18 20 23 26 28 30 32 33 33 34 36 36 36 37 38 39 39 39 39 39 38 37 36 36
Wind_Direction
257 256 255 255 253 250 248 243 241 237 232 228 227 228 227 225 222 217 216 213 209 206 203 199 196 194 192 190 189 186 183 181 177 175 176 178 180 184 183 182 183 186 190
260 257 256 256 255 252 248 244 242 238 235 231 228 227 226 225 223 219 219 216 212 209 205 201 200 198 196 194 192 190 187 184 182 182 184 185 187 188 187 184 186 191 203
260 259 257 257 254 253 252 249 245 243 240 237 233 231 229 226 226 221 220 218 216 212 208 205 203 201 199 198 197 195 193 191 190 192 194 196 195 195 194 195 201 207 221
258 258 257 256 254 254 253 253 250 247 243 240 238 234 231 228 226 223 221 221 220 216 212 209 207 204 202 201 201 199 199 198 198 199 201 203 204 204 205 212 218 224 236
258 256 256 255 254 253 253 254 253 251 246 243 240 236 234 230 227 227 224 223 221 219 216 214 212 208 207 206 206 204 204 204 205 206 207 209 212 215 219 226 229 236 248
259 257 256 255 254 252 251 251 250 252 249 245 242 238 236 232 229 229 229 226 223 220 220 218 216 214 213 212 212 211 210 209 210 211 212 214 217 221 226 231 237 247 258
260 258 257 255 253 251 250 249 248 249 249 247 245 242 240 236 233 233 232 230 227 224 222 221 220 218 218 217 216 217 217 216 215 216 219 220 222 226 231 237 246 254 262
264 261 258 256 253 251 250 248 247 247 247 247 246 245 242 238 238 237 236 234 230 227 224 223 224 222 222 221 221 221 222 222 222 222 224 226 229 233 237 243 250 257 264
272 267 262 258 256 253 251 249 247 247 246 246 246 245 243 242 240 240 238 236 234 231 228 226 226 226 226 226 226 226 226 226 227 227 228 231 233 237 241 247 253 259 266
285 276 269 263 259 256 252 249 248 247 246 244 245 245 244 242 241 240 240 237 235 233 230 228 228 228 228 228 229 229 228 229 231 231 232 234 236 240 245 250 255 261 267
303 292 280 269 262 258 255 251 249 247 247 244 244 244 242 241 240 240 240 238 236 234 233 231 230 231 231 230 230 232 231 231 232 234 235 236 239 243 247 251 257 261 265
317 306 294 281 269 262 258 254 251 249 248 247 246 244 242 241 240 239 239 239 238 236 236 234 232 232 233 231 231 232 234 234 234 235 237 238 241 245 249 253 257 260 265
329 318 307 294 280 270 264 259 255 251 249 248 247 245 243 241 240 239 238 238 238 238 236 234 233 232 233 233 233 233 234 236 236 236 238 240 243 247 251 254 257 260 265
342 331 320 308 295 282 272 265 260 255 252 250 247 246 244 242 241 239 238 237 237 237 236 236 235 233 233 234 234 234 235 236 237 238 240 242 244 248 251 254 256 260 264
352 342 332 322 308 294 282 272 265 258 255 252 250 248 246 244 242 241 239 238 238 237 237 236 236 236 234 234 234 235 237 238 238 240 241 243 245 247 250 254 256 260 262
357 351 342 333 322 308 294 282 273 264 259 255 252 250 247 244 243 242 240 240 238 237 236 236 237 236 236 236 236 236 237 238 239 240 242 243 244 246 250 253 255 259 261
3 357 350 342 334 323 308 293 282 272 264 259 255 252 248 245 243 241 241 241 240 239 238 237 236 235 237 237 236 237 237 239 241 241 243 244 245 246 249 252 254 258 260
6 1 355 350 342 333 321 308 293 281 271 263 257 252 248 245 243 242 241 240 239 239 239 238 237 236 236 237 238 239 239 239 240 241 242 244 245 246 248 250 254 256 259
5 2 358 354 348 342 333 321 307 293 280 269 260 253 249 247 244 243 241 240 240 240 240 239 238 238 238 238 239 239 239 239 240 241 242 243 244 247 248 250 254 256 258
2 2 360 356 352 347 340 331 319 305 291 277 266 258 252 248 246 244 242 240 240 239 240 240 239 239 239 238 238 239 240 241 241 241 241 241 243 246 248 250 252 255 257
359 359 359 358 356 352 347 340 331 317 303 287 273 263 256 252 248 245 243 241 240 239 240 240 240 239 239 238 239 240 241 242 243 243 243 242 244 246 248 249 251 253 255
358 358 358 357 356 355 351 346 341 332 318 300 283 272 264 257 251 248 246 244 242 241 240 241 240 240 239 240 240 241 241 242 242 243 244 244 245 245 247 247 248 251 254
357 357 358 358 358 357 355 352 348 343 335 320 300 286 276 265 256 251 248 246 244 242 241 241 240 239 240 240 240 242 242 242 243 242 242 243 245 245 246 246 246 248 250
354 355 357 358 359 358 357 357 354 349 344 336 321 305 291 278 263 256 251 248 246 244 242 241 240 239 239 239 239 240 241 241 241 240 240 241 242 243 244 243 244 247 248
351 353 354 356 358 358 357 357 356 353 347 341 332 320 305 292 274 262 254 249 247 244 242 240 239 237 237 237 237 237 237 239 241 241 240 240 241 242 241 242 244 245 245
349 350 352 353 355 356 356 356 355 354 352 347 341 332 319 304 290 275 264 255 250 247 244 240 237 236 236 236 236 236 236 238 240 240 238 238 238 240 241 242 243 243 244
Height
5838 5840 5843 5845 5848 5850 5853 5856 5858 5860 5862 5865 5867 5870 5872 5873 5876 5878 5879 5881 5882 5884 5885 5887 5889 5891 5893 5895 5897 5899 5901 5902 5904 5906 5907 5909 5910 5911 5913 5914 5915 5915 5916
5829 5831 5835 5838 5840 5843 5846 5849 5851 5854 5857 5859 5862 5865 5868 5870 5873 5875 5876 5878 5880 5882 5884 5886 5887 5889 5892 5894 5896 5898 5900 5902 5903 5905 5907 5908 5910 5911 5912 5913 5914 5915 5916
5820 5823 5826 5829 5833 5836 5839 5842 5845 5848 5851 5854 5857 5860 5863 5866 5869 5871 5873 5875 5877 5879 5881 5884 5886 5888 5890 5892 5895 5897 5899 5901 5903 5905 5906 5908 5909 5911 5912 5913 5914 5915 5915
5812 5815 5818 5821 5824 5828 5831 5834 5838 5841 5845 5848 5851 5854 5858 5861 5864 5867 5870 5872 5874 5877 5879 5881 5884 5886 5888 5891 5893 5895 5898 5900 5902 5904 5905 5907 5908 5910 5911 5912 5913 5914 5914
5804 5807 5810 5813 5816 5820 5823 5827 5830 5834 5838 5841 5845 5848 5852 5856 5859 5862 5866 5869 5871 5874 5876 5879 5881 5884 5886 5889 5891 5893 5896 5898 5900 5902 5904 5905 5907 5908 5910 5911 5912 5913 5913
5798 5800 5802 5805 5808 5812 5815 5819 5823 5827 5830 5834 5838 5842 5846 5849 5853 5857 5861 5864 5867 5870 5872 5876 5878 5881 5884 5886 5889 5891 5894 5896 5898 5900 5902 5904 5905 5907 5908 5909 5910 5911 5912
5791 5793 5795 5798 5801 5804 5808 5811 5815 5819 5823 5827 5831 5835 5838 5843 5846 5851 5855 5859 5862 5865 5868 5872 5874 5877 5880 5883 5886 5888 5891 5893 5895 5897 5899 5901 5903 5905 5906 5907 5908 5909 5909
5786 5787 5789 5791 5794 5797 5800 5804 5807 5811 5815 5819 5823 5826 5831 5836 5840 5844 5848 5852 5856 5860 5863 5867 5870 5873 5876 5879 5882 5885 5888 5890 5892 5894 5896 5898 5900 5902 5903 5904 5905 5906 5907
5781 5782 5783 5785 5787 5790 5793 5796 5799 5803 5807 5811 5815 5819 5824 5829 5833 5837 5841 5846 5850 5853 5857 5861 5865 5868 5871 5875 5878 5881 5884 5886 5889 5891 5893 5895 5897 5899 5900 5901 5902 5903 5904
5778 5778 5778 5779 5781 5783 5786 5788 5792 5795 5798 5802 5806 5811 5816 5820 5825 5829 5834 5838 5842 5847 5851 5854 5858 5862 5865 5869 5872 5876 5879 5882 5884 5887 5889 5891 5893 5895 5896 5898 5899 5900 5901
5775 5774 5774 5774 5775 5777 5779 5781 5784 5787 5791 5794 5798 5802 5806 5811 5816 5821 5826 5830 5835 5839 5843 5847 5851 5855 5859 5863 5867 5870 5873 5876 5879 5882 5884 5887 5889 5891 5892 5894 5895 5896 5897
5772 5771 5770 5770 5770 5771 5773 5774 5777 5779 5782 5786 5789 5793 5798 5802 5807 5812 5817 5822 5826 5831 5835 5839 5844 5848 5852 5856 5861 5864 5867 5870 5874 5876 5879 5881 5884 5886 5888 5889 5890 5891 5892
5770 5768 5767 5766 5765 5766 5767 5768 5770 5772 5774 5777 5781 5785 5789 5793 5798 5802 5807 5812 5817 5822 5826 5831 5836 5840 5844 5849 5853 5857 5860 5863 5867 5870 5873 5876 5878 5880 5882 5884 5885 5886 5887
5768 5766 5764 5762 5762 5761 5761 5762 5763 5765 5767 5769 5772 5775 5779 5784 5788 5792 5797 5802 5807 5812 5817 5823 5826 5831 5835 5840 5845 5849 5852 5856 5860 5863 5866 5869 5872 5874 5876 5878 5879 5881 5882
5767 5764 5762 5760 5758 5757 5756 5756 5757 5758 5759 5761 5763 5766 5770 5774 5778 5783 5787 5792 5798 5803 5808 5813 5818 5822 5826 5831 5836 5840 5844 5848 5852 5855 5859 5862 5865 5867 5870 5871 5873 5874 5876
5765 5763 5760 5757 5755 5753 5751 5750 5750 5751 5752 5753 5755 5757 5760 5764 5768 5772 5777 5782 5787 5792 5798 5803 5808 5813 5817 5822 5827 5830 5835 5839 5843 5847 5851 5854 5857 5860 5862 5864 5866 5868 5869
5765 5761 5758 5755 5752 5749 5747 5745 5744 5744 5744 5745 5746 5748 5751 5754 5758 5762 5766 5771 5776 5782 5788 5793 5797 5802 5807 5812 5817 5821 5826 5830 5834 5838 5842 5846 5849 5852 5854 5857 5859 5861 5862
5765 5761 5757 5753 5749 5746 5743 5740 5738 5737 5737 5737 5738 5739 5742 5745 5748 5752 5757 5761 5766 5771 5777 5782 5787 5792 5797 5802 5807 5811 5816 5820 5824 5828 5833 5836 5840 5843 5846 5849 5851 5853 5855
5765 5760 5756 5751 5747 5743 5739 5736 5733 5731 5730 5730 5730 5732 5734 5737 5740 5743 5747 5751 5756 5761 5766 5771 5776 5781 5786 5792 5797 5802 5806 5810 5815 5819 5823 5827 5831 5834 5837 5840 5843 5845 5847
5764 5759 5754 5750 5745 5740 5736 5732 5729 5726 5725 5724 5724 5725 5727 5729 5731 5734 5738 5742 5746 5751 5755 5760 5766 5771 5776 5781 5786 5792 5796 5801 5805 5809 5813 5817 5821 5825 5828 5831 5835 5837 5839
5763 5758 5753 5748 5743 5738 5733 5729 5725 5722 5720 5718 5718 5719 5720 5722 5724 5726 5729 5733 5737 5741 5745 5750 5755 5760 5766 5770 5776 5782 5786 5790 5795 5799 5804 5808 5812 5816 5819 5822 5826 5828 5830
5763 5757 5752 5747 5742 5736 5731 5726 5722 5719 5716 5714 5713 5713 5714 5715 5716 5718 5721 5725 5728 5732 5736 5741 5745 5750 5755 5760 5765 5770 5775 5780 5785 5791 5794 5798 5802 5806 5810 5813 5816 5819 5822
5762 5757 5752 5746 5741 5735 5730 5725 5721 5717 5713 5711 5709 5709 5709 5709 5710 5711 5714 5716 5719 5723 5727 5732 5736 5741 5745 5751 5755 5760 5764 5769 5774 5779 5783 5788 5792 5796 5800 5804 5807 5810 5812
5762 5756 5751 5746 5740 5735 5729 5724 5720 5715 5712 5709 5707 5705 5704 5703 5704 5705 5707 5709 5712 5715 5719 5723 5727 5731 5735 5739 5744 5750 5754 5758 5763 5768 5773 5777 5782 5786 5790 5794 5797 5800 5803
5761 5756 5751 5746 5740 5735 5730 5724 5719 5715 5711 5707 5705 5702 5701 5700 5699 5700 5701 5703 5705 5707 5710 5714 5718 5722 5726 5730 5735 5740 5744 5748 5753 5758 5763 5768 5772 5776 5780 5784 5788 5791 5794
5759 5755 5750 5745 5740 5735 5730 5724 5720 5715 5711 5707 5703 5700 5698 5697 5696 5695 5696 5697 5699 5700 5703 5706 5710 5713 5717 5721 5726 5731 5735 5740 5744 5748 5753 5758 5762 5767 5771 5775 5778 5782 5785